Temperature
12 12 11 11 11 10 10 10 10 10 9 9 9 9 9 9 9 10 10 10 10 10 10 10 9 9 9 10 10 10 10 10 10 9 10 10 10 10 10 11 11 11 11
11 11 11 10 10 10 10 9 9 9 9 9 9 9 9 9 9 9 9 9 9 9 9 9 9 9 9 9 9 9 9 9 9 9 9 9 9 10 10 10 10 10 11
11 11 10 10 10 10 9 9 9 9 8 8 8 8 8 8 8 9 9 9 9 9 9 9 9 9 9 9 9 9 9 9 9 9 9 9 9 9 10 10 10 10 10
11 10 10 10 9 9 9 9 8 8 8 8 8 8 8 8 8 8 8 9 9 9 9 9 9 9 9 9 9 9 9 9 9 9 9 9 9 9 9 9 10 10 10
11 10 10 9 9 9 9 8 8 8 8 8 8 8 8 8 8 8 8 8 8 8 9 8 8 8 8 9 9 9 9 9 9 8 9 9 9 9 9 9 9 9 9
10 10 9 9 9 9 8 8 8 8 8 7 7 7 7 7 7 8 8 8 8 8 8 8 8 8 8 8 8 8 9 8 8 8 8 8 9 9 9 9 9 9 9
10 10 9 9 9 8 8 8 8 7 7 7 7 7 7 7 7 7 7 7 8 8 8 8 8 8 8 8 8 8 8 8 8 8 8 8 8 9 9 9 9 8 9
10 9 9 9 8 8 8 8 7 7 7 7 7 7 7 7 7 7 7 7 7 7 7 8 8 8 8 8 8 8 8 8 8 8 8 8 8 8 8 9 8 8 8
10 9 9 9 8 8 8 7 7 7 7 7 6 6 6 6 6 7 7 7 7 7 7 7 7 7 7 7 8 8 8 8 8 8 8 8 8 8 8 8 8 8 8
9 9 9 8 8 8 7 7 7 6 6 6 6 6 6 6 6 6 6 6 7 7 7 7 7 7 7 7 7 7 7 7 7 7 7 7 8 8 8 8 8 8 8
9 9 8 8 8 7 7 7 6 6 6 6 6 6 6 6 6 6 6 6 6 6 6 6 6 6 6 7 7 7 7 7 7 7 7 7 7 8 7 8 8 8 8
8 8 8 7 7 7 6 6 6 6 6 6 6 6 6 5 5 5 6 6 6 6 6 6 6 6 6 6 6 7 7 7 7 7 7 7 7 7 7 7 8 8 8
8 7 7 7 6 6 6 6 6 5 5 5 5 5 5 5 5 5 5 5 5 5 6 5 6 6 6 6 6 6 6 7 7 7 7 7 7 7 7 7 7 7 8
7 7 6 6 6 6 5 5 5 5 5 5 5 5 4 4 4 5 5 5 5 5 5 5 5 5 6 6 6 6 6 6 6 7 7 7 7 7 7 7 7 7 7
6 6 6 5 5 5 5 5 5 5 4 4 4 4 4 4 4 4 4 4 4 4 4 5 5 5 5 5 6 6 6 6 6 6 6 6 7 7 7 7 7 7 7
6 5 5 5 5 5 5 4 4 4 4 4 3 3 3 3 4 4 4 4 4 4 4 4 4 4 5 5 5 5 6 6 6 6 6 6 6 6 7 7 7 6 6
5 4 4 4 4 4 4 4 4 3 3 3 3 3 3 3 3 3 3 3 3 3 3 4 4 4 4 5 5 5 5 5 5 6 6 6 6 6 6 6 6 6 6
4 4 3 3 3 3 3 3 3 3 3 3 2 2 2 2 2 2 3 3 3 3 3 3 3 4 4 4 4 5 5 5 5 5 5 5 5 6 6 6 6 6 6
3 3 3 3 3 3 3 3 3 2 2 2 2 2 2 2 2 2 2 2 3 3 3 3 3 4 4 4 4 5 5 5 5 5 5 5 5 5 5 5 5 5 5
3 3 3 3 2 2 2 2 2 2 2 2 2 1 1 1 1 1 2 2 2 2 3 3 3 3 3 4 4 4 4 4 4 4 4 5 5 5 5 5 5 5 5
2 2 2 2 2 2 2 2 2 1 1 1 1 1 1 1 1 1 1 1 1 2 2 2 3 3 3 3 4 4 4 4 4 4 4 4 4 4 5 5 5 5 4
2 2 2 2 2 1 1 1 1 1 1 1 1 1 1 1 1 1 1 1 1 1 2 2 2 2 2 3 3 3 3 3 3 3 4 4 4 4 4 4 4 4 4
1 1 1 1 1 1 1 1 1 1 1 1 1 1 1 1 1 1 1 1 1 1 1 1 2 2 2 2 3 3 3 3 3 3 3 3 4 4 4 4 4 3 3
1 1 1 1 1 0 0 0 0 0 0 0 0 0 0 0 1 1 1 1 1 1 1 1 1 1 2 2 2 3 3 3 3 3 3 3 3 3 3 3 3 3 3
0 0 -0 -0 -0 -0 0 -0 -0 -0 -0 -0 -0 -0 -0 0 0 0 0 0 0 1 1 1 1 1 1 1 2 2 2 2 2 2 2 2 3 3 3 3 2 2 2
-1 -1 -1 -1 -1 -1 -1 -0 -1 -1 -1 -0 -0 -0 -0 -0 -0 -0 0 0 0 1 1 1 1 1 1 1 2 2 2 2 2 2 2 2 2 2 2 2 2 2 2
Wind_Speed
3 2 2 3 3 4 4 4 4 4 4 4 4 4 5 4 5 6 7 6 6 7 6 5 6 6 6 6 6 5 6 5 4 3 3 4 5 7 6 6 6 7 9
2 2 2 3 4 4 4 4 4 4 4 4 4 4 4 4 5 5 6 6 6 7 7 7 6 6 6 7 7 6 5 4 5 4 2 3 4 5 7 6 7 8 6
3 3 3 3 3 4 4 4 5 5 5 5 4 4 3 3 5 5 6 6 7 7 7 8 7 7 7 7 8 7 7 6 6 5 4 4 4 3 3 6 7 7 7
3 2 2 3 4 4 3 3 4 5 5 4 5 7 6 6 6 5 5 6 6 7 7 7 8 8 7 8 8 8 6 7 7 6 6 5 3 3 2 3 5 6 7
3 2 2 3 4 3 2 3 4 5 5 5 6 7 6 6 5 5 6 7 7 8 8 8 8 8 8 8 8 8 8 7 7 7 5 5 4 4 3 5 5 5 6
2 2 3 2 2 2 2 3 4 5 5 5 6 7 7 7 6 7 6 6 6 6 8 8 7 7 7 8 9 9 9 8 7 7 6 6 5 5 5 5 6 6 5
2 2 3 3 2 3 3 4 4 5 5 5 6 6 7 7 8 8 7 7 6 6 8 8 7 7 8 8 8 9 9 9 9 8 8 7 7 5 5 5 6 5 4
2 3 4 3 3 4 4 4 5 5 5 5 6 6 7 6 6 7 7 7 6 6 7 8 8 8 8 9 8 8 9 8 9 10 9 7 7 7 6 6 5 5 5
3 3 3 3 3 4 4 5 5 5 5 6 6 6 7 6 6 7 7 6 6 6 7 7 8 8 9 9 9 8 9 8 9 9 9 8 7 7 6 6 6 6 6
3 3 3 3 4 4 4 5 6 6 5 5 5 5 6 6 7 6 6 6 6 6 7 8 8 9 9 10 9 8 9 10 9 8 10 9 7 7 6 6 6 6 6
5 4 4 4 4 4 4 5 5 5 5 5 5 5 5 6 6 5 6 6 6 6 7 8 8 9 10 10 9 9 10 11 10 10 10 11 9 7 7 6 6 6 5
4 4 4 4 5 5 5 4 4 4 4 4 4 4 4 4 4 4 5 5 5 6 6 7 7 8 9 9 9 10 10 10 11 10 10 10 9 9 8 7 7 6 6
5 5 5 5 5 5 5 4 4 3 3 3 3 4 4 4 4 4 4 4 4 5 6 6 7 8 8 9 9 9 9 9 9 9 10 10 10 10 8 8 7 6 6
6 5 5 5 5 5 5 4 3 3 3 3 3 4 4 4 5 4 4 4 4 5 5 6 6 7 8 8 8 8 8 8 7 8 8 9 10 10 9 8 8 7 6
7 6 5 6 6 5 5 4 4 3 3 3 3 4 4 4 4 3 3 4 4 5 5 5 5 5 5 6 6 6 7 6 6 6 7 8 9 10 9 8 7 8 6
7 6 6 7 7 6 5 4 4 4 4 4 4 4 4 4 4 4 4 5 4 5 5 5 5 5 5 6 7 6 5 6 6 6 5 6 7 8 10 10 10 10 9
7 7 7 6 6 6 4 4 4 4 4 4 4 4 4 5 5 5 5 5 5 5 5 5 5 5 6 7 7 7 6 5 5 5 4 4 5 7 6 7 8 8 10
6 7 7 7 6 5 4 4 4 4 4 5 5 5 5 6 6 5 6 6 5 5 5 5 5 5 5 6 6 7 5 4 4 4 5 4 5 6 6 5 5 4 5
6 6 5 5 6 6 5 5 4 4 4 5 5 5 6 6 6 6 6 6 5 4 4 4 4 4 4 4 4 3 3 2 3 3 4 3 4 6 6 6 5 4 3
5 5 5 5 6 6 5 5 5 4 5 5 5 5 5 5 6 5 5 5 4 4 3 3 2 2 1 2 2 1 2 2 2 2 3 5 4 6 7 6 6 5 4
6 6 6 5 5 5 5 5 5 5 5 5 4 5 5 5 5 5 4 3 3 3 2 2 1 1 1 0 0 1 1 2 1 2 2 2 3 4 6 6 5 6 5
7 6 5 5 5 5 5 5 6 5 5 4 4 4 5 5 5 4 3 2 2 2 2 2 2 1 1 1 1 1 0 1 1 2 2 2 3 3 5 5 6 8 6
7 6 6 6 5 5 5 6 6 4 4 4 5 5 4 4 4 2 2 1 1 1 1 1 1 1 1 1 1 1 1 1 0 1 1 2 3 3 4 6 8 7 5
7 6 6 6 6 5 5 5 6 4 4 5 5 4 4 4 3 1 0 0 0 0 1 1 1 1 1 0 1 1 1 1 1 1 2 2 3 3 5 6 5 4 4
6 5 5 6 6 5 5 5 5 4 4 4 4 4 3 2 2 1 1 0 0 1 1 0 0 0 1 1 1 1 1 1 1 1 2 2 3 3 3 4 4 4 4
6 6 6 6 6 6 5 5 4 4 3 3 3 3 2 2 1 1 2 3 2 3 2 1 2 2 2 2 1 1 1 3 3 3 2 2 2 2 3 4 4 3 4
Wind_Direction
241 208 220 241 253 260 263 260 255 255 255 240 234 235 242 238 229 222 221 215 220 214 206 213 209 208 208 211 211 214 206 211 200 212 242 252 237 228 223 216 216 216 213
258 242 239 245 252 263 263 258 257 260 256 244 240 231 238 237 233 225 222 214 212 211 214 208 210 214 211 211 214 212 210 212 197 192 203 237 250 241 229 217 216 218 215
246 262 268 266 264 269 259 259 254 255 251 251 257 256 246 240 234 227 222 219 213 215 212 214 215 215 211 212 213 212 211 208 209 199 197 202 220 241 231 225 220 217 217
235 253 275 282 280 279 265 252 258 252 247 243 243 242 240 240 237 228 221 220 216 218 213 215 219 217 215 215 217 215 212 204 211 215 223 227 214 217 236 239 223 219 222
212 256 280 284 291 282 256 244 261 258 248 245 241 241 244 245 240 235 225 224 222 221 217 217 221 218 217 219 219 214 213 212 214 217 219 234 237 231 222 242 234 236 229
199 253 270 278 300 306 280 259 264 262 257 247 243 244 247 247 242 241 231 225 224 222 219 221 221 221 219 217 218 216 214 217 219 222 218 215 215 215 218 228 226 234 236
223 256 279 291 306 296 280 267 268 275 270 253 244 245 248 247 243 243 233 229 226 227 219 221 220 224 221 218 216 216 217 216 219 225 225 220 224 219 220 222 230 242 251
259 264 276 280 289 288 284 275 271 271 272 264 254 244 242 246 247 244 238 231 228 229 223 218 223 228 223 224 218 220 222 220 221 229 225 224 224 223 221 219 220 237 252
258 266 279 291 291 288 288 284 277 275 268 264 262 250 242 243 251 250 244 238 229 232 230 227 230 232 226 225 222 224 222 222 222 224 224 226 225 221 223 219 211 216 242
286 270 282 304 304 289 289 292 285 281 274 265 262 263 257 253 250 250 248 244 230 234 236 233 234 234 230 229 227 226 222 222 226 225 224 226 226 220 221 220 220 215 226
312 300 297 301 299 296 291 286 290 292 290 282 273 265 264 259 253 250 251 246 239 233 235 235 234 238 234 229 226 228 223 223 226 225 224 225 221 218 220 219 220 221 216
320 320 318 315 313 310 306 295 298 300 295 292 292 276 268 269 266 265 263 257 255 242 240 239 238 240 239 231 226 229 230 225 226 225 221 224 222 218 217 216 220 222 218
326 326 325 320 316 314 315 311 309 313 313 311 307 298 284 277 270 271 278 272 269 263 253 249 244 241 241 236 231 229 230 229 228 225 222 221 219 222 220 216 217 219 219
330 331 331 326 323 324 320 320 322 318 317 313 303 303 296 285 276 276 279 277 279 276 266 261 253 247 241 240 237 232 230 231 229 227 226 222 220 221 217 217 215 209 205
336 332 333 333 331 328 326 333 330 324 323 321 315 310 306 308 304 290 280 285 280 283 278 266 262 259 248 243 236 227 229 225 225 226 227 225 222 218 214 212 206 198 198
329 332 334 328 325 324 324 331 329 329 328 319 312 311 312 312 308 302 288 289 287 287 285 271 258 257 257 258 250 238 230 224 220 224 230 224 220 214 211 209 201 194 193
327 333 329 323 321 323 326 325 318 322 324 316 312 315 317 310 306 307 300 285 280 282 280 278 266 254 250 259 259 245 237 222 217 221 223 226 220 200 197 198 197 199 195
338 338 332 330 326 325 324 317 318 322 317 313 311 315 317 311 310 307 301 292 282 281 275 271 266 254 245 253 255 244 229 219 215 216 212 218 213 197 186 184 187 192 191
330 325 323 322 324 324 325 324 320 316 314 311 314 317 313 308 308 302 298 300 301 295 284 276 270 260 246 239 238 235 198 194 209 212 207 211 207 185 175 175 180 184 173
327 323 323 322 321 319 321 320 309 309 305 304 307 309 309 306 302 298 299 305 307 299 298 290 268 227 211 234 219 217 178 183 204 218 216 201 192 182 174 173 175 181 171
321 323 321 319 315 319 314 305 303 301 300 305 308 308 308 306 301 298 297 304 311 311 323 330 4 114 133 146 186 196 158 170 197 233 218 188 171 186 187 181 175 171 154
320 317 313 309 311 317 313 303 298 295 302 302 300 301 301 304 304 296 297 308 323 337 354 16 18 53 78 72 59 59 71 166 197 214 192 176 175 181 180 173 155 148 141
312 311 306 301 304 310 310 304 301 302 308 305 301 299 300 299 299 286 290 316 359 14 3 23 18 5 49 54 22 24 16 1 210 177 169 175 164 148 152 148 143 140 138
305 307 307 305 302 302 305 303 306 309 311 306 302 301 301 305 311 315 307 36 46 71 1 356 352 353 0 32 46 27 79 85 88 97 103 111 120 121 129 134 133 129 136
306 306 304 303 304 306 309 312 314 314 313 308 305 309 311 314 332 352 20 26 304 218 196 241 295 295 305 287 305 305 157 145 151 110 96 109 108 102 112 113 109 108 111
307 308 306 305 307 308 302 302 305 305 301 303 309 314 317 330 340 12 13 9 7 9 7 344 321 316 282 280 319 350 99 115 126 111 114 110 105 111 123 122 115 108 111
Height
1433 1434 1435 1435 1434 1434 1434 1433 1433 1432 1432 1431 1431 1431 1432 1433 1434 1436 1437 1437 1439 1441 1443 1445 1447 1448 1450 1452 1454 1456 1457 1459 1462 1464 1464 1465 1467 1467 1468 1469 1470 1471 1472
1429 1430 1431 1431 1430 1430 1429 1429 1428 1428 1427 1427 1427 1427 1427 1428 1429 1430 1432 1432 1434 1436 1438 1440 1441 1443 1445 1447 1449 1450 1452 1454 1457 1458 1459 1460 1462 1461 1462 1463 1464 1465 1467
1426 1426 1427 1427 1427 1426 1425 1424 1424 1423 1423 1423 1423 1422 1422 1423 1424 1425 1426 1427 1428 1430 1432 1434 1436 1437 1439 1440 1443 1444 1446 1448 1451 1453 1455 1455 1454 1456 1457 1458 1459 1460 1461
1423 1423 1423 1423 1422 1421 1421 1420 1420 1419 1419 1419 1418 1418 1417 1418 1418 1418 1419 1421 1423 1425 1426 1428 1430 1431 1433 1434 1437 1439 1441 1443 1444 1447 1450 1451 1450 1452 1451 1452 1454 1455 1456
1420 1420 1420 1420 1418 1417 1416 1416 1416 1415 1414 1414 1414 1413 1413 1413 1413 1414 1414 1416 1417 1419 1421 1422 1423 1424 1426 1428 1431 1432 1434 1437 1438 1440 1443 1444 1445 1446 1446 1446 1448 1450 1450
1417 1417 1417 1417 1415 1414 1413 1412 1411 1410 1410 1409 1409 1409 1409 1408 1409 1408 1409 1410 1411 1413 1414 1416 1417 1418 1420 1422 1424 1426 1428 1430 1432 1435 1436 1438 1439 1439 1441 1442 1442 1444 1445
1414 1414 1414 1413 1412 1411 1409 1408 1407 1406 1405 1405 1404 1404 1404 1404 1404 1404 1404 1405 1405 1407 1408 1409 1411 1412 1413 1415 1418 1420 1422 1424 1426 1428 1430 1432 1433 1435 1436 1437 1438 1439 1440
1411 1411 1411 1410 1409 1408 1406 1405 1403 1401 1400 1400 1399 1399 1399 1399 1399 1399 1399 1399 1400 1401 1402 1403 1405 1406 1408 1409 1411 1413 1415 1418 1420 1422 1424 1425 1427 1429 1430 1432 1433 1434 1434
1408 1408 1408 1407 1406 1405 1403 1401 1400 1398 1396 1395 1394 1394 1394 1394 1394 1394 1394 1394 1394 1396 1397 1397 1398 1400 1401 1403 1404 1406 1408 1411 1413 1415 1417 1418 1420 1423 1424 1426 1428 1430 1429
1405 1405 1405 1404 1403 1402 1400 1398 1396 1394 1392 1391 1389 1389 1388 1388 1389 1389 1388 1389 1389 1390 1391 1391 1392 1393 1394 1396 1398 1399 1402 1404 1406 1408 1410 1411 1413 1416 1418 1420 1422 1423 1424
1403 1402 1402 1401 1400 1398 1396 1394 1392 1390 1388 1386 1385 1384 1384 1384 1383 1383 1383 1383 1383 1384 1384 1385 1386 1387 1388 1389 1391 1392 1395 1397 1399 1401 1402 1404 1406 1408 1411 1413 1415 1417 1418
1401 1400 1399 1397 1396 1394 1392 1390 1388 1385 1383 1382 1381 1379 1379 1379 1378 1377 1377 1377 1377 1378 1378 1379 1379 1380 1381 1383 1384 1385 1388 1390 1391 1393 1395 1397 1399 1401 1404 1406 1408 1410 1412
1399 1397 1396 1394 1392 1390 1388 1386 1384 1382 1380 1378 1377 1375 1374 1374 1373 1372 1372 1372 1372 1372 1372 1372 1373 1373 1374 1375 1377 1378 1381 1383 1384 1386 1388 1390 1392 1394 1397 1399 1401 1403 1406
1397 1395 1393 1391 1389 1387 1385 1383 1381 1380 1377 1375 1373 1372 1371 1369 1369 1368 1368 1367 1367 1366 1366 1366 1367 1367 1368 1369 1370 1372 1374 1376 1377 1379 1381 1383 1385 1387 1389 1392 1394 1396 1399
1395 1393 1390 1388 1387 1385 1383 1381 1379 1377 1375 1372 1370 1368 1367 1366 1365 1364 1364 1363 1362 1361 1361 1361 1361 1361 1362 1362 1363 1366 1367 1369 1371 1373 1375 1376 1378 1380 1382 1385 1387 1390 1392
1393 1391 1389 1387 1385 1382 1380 1378 1376 1374 1372 1369 1367 1365 1364 1363 1361 1360 1359 1358 1357 1356 1355 1354 1354 1355 1355 1357 1358 1360 1362 1364 1365 1367 1368 1370 1373 1374 1376 1378 1381 1384 1386
1392 1389 1387 1385 1382 1380 1378 1375 1373 1371 1369 1366 1364 1362 1361 1359 1357 1356 1355 1354 1352 1351 1349 1348 1349 1349 1350 1351 1353 1355 1357 1359 1360 1361 1363 1365 1367 1369 1371 1373 1376 1379 1381
1389 1387 1384 1382 1380 1377 1375 1373 1370 1368 1366 1363 1361 1360 1358 1355 1354 1352 1350 1349 1347 1346 1345 1344 1344 1344 1345 1347 1349 1351 1352 1354 1355 1357 1359 1361 1362 1364 1366 1368 1371 1373 1376
1387 1385 1382 1380 1377 1375 1372 1370 1367 1365 1363 1361 1359 1357 1355 1352 1350 1347 1345 1344 1342 1341 1340 1340 1340 1340 1341 1343 1345 1346 1348 1350 1352 1354 1356 1357 1358 1359 1362 1364 1366 1369 1372
1385 1382 1380 1377 1374 1372 1370 1366 1363 1361 1360 1358 1356 1354 1352 1349 1347 1344 1342 1340 1339 1337 1336 1336 1336 1338 1339 1340 1342 1343 1345 1346 1348 1350 1352 1353 1354 1356 1358 1360 1362 1365 1367
1382 1380 1377 1374 1372 1369 1367 1364 1361 1359 1358 1356 1353 1351 1349 1346 1343 1341 1339 1338 1336 1335 1334 1334 1334 1336 1337 1338 1339 1341 1342 1343 1345 1346 1348 1349 1351 1353 1355 1357 1359 1361 1364
1379 1377 1374 1371 1369 1367 1364 1361 1358 1357 1355 1353 1350 1348 1345 1343 1341 1339 1337 1336 1335 1334 1333 1333 1333 1334 1335 1336 1337 1338 1340 1341 1342 1343 1345 1346 1348 1350 1352 1354 1357 1359 1362
1376 1374 1371 1368 1366 1364 1361 1359 1356 1354 1352 1349 1347 1344 1342 1340 1338 1337 1336 1335 1334 1333 1333 1332 1332 1332 1333 1334 1335 1335 1336 1338 1339 1341 1342 1344 1345 1347 1350 1352 1355 1357 1359
1373 1371 1368 1365 1362 1360 1358 1356 1353 1351 1349 1347 1344 1342 1340 1337 1336 1335 1335 1334 1333 1333 1332 1332 1332 1331 1332 1332 1333 1333 1334 1336 1337 1339 1340 1342 1343 1345 1347 1349 1352 1354 1356
1370 1368 1365 1361 1359 1357 1355 1353 1351 1349 1346 1344 1342 1339 1338 1336 1335 1335 1334 1334 1334 1333 1333 1332 1331 1331 1330 1331 1332 1332 1333 1334 1335 1337 1338 1340 1341 1343 1345 1347 1349 1352 1354
1366 1364 1361 1358 1356 1354 1351 1350 1348 1347 1344 1342 1340 1338 1336 1335 1334 1333 1333 1333 1333 1333 1332 1332 1331 1330 1330 1330 1330 1331 1332 1333 1335 1336 1337 1338 1340 1341 1343 1345 1348 1350 1353